Time,TemperatureF,DewpointF,PressureIn,WindDirection,WindDirectionDegrees,WindSpeedMPH,WindSpeedGustMPH,Humidity,HourlyPrecipIn,Conditions,Clouds,dailyrainin,SoftwareType,DateUTC
2013-11-01 00:23:00,50.0,48.0,29.72,SSW,195,0.0,0.0,94,0.00,,,0.46,,2013-11-01 05:23:00,
2013-11-01 00:53:00,49.0,48.0,29.73,SSW,197,0.0,0.0,96,0.00,,,0.36,,2013-11-01 05:53:00,
2013-11-01 01:22:00,47.0,46.0,29.74,SSW,197,0.0,0.0,96,0.00,,,0.36,,2013-11-01 06:22:00,
2013-11-01 01:52:00,47.0,46.0,29.74,SSW,193,0.0,0.0,97,0.00,,,0.28,,2013-11-01 06:52:00,
2013-11-01 02:21:00,46.0,45.0,29.75,SSW,193,0.0,0.0,97,0.00,,,0.28,,2013-11-01 07:21:00,
2013-11-01 02:52:00,47.0,46.0,29.74,SSW,194,0.0,1.0,98,0.00,,,0.25,,2013-11-01 07:52:00,
2013-11-01 03:21:00,45.0,44.0,29.73,SSW,194,0.0,0.0,97,0.00,,,0.25,,2013-11-01 08:21:00,
2013-11-01 03:52:00,44.0,43.0,29.74,SSW,194,0.0,0.0,97,0.00,,,0.22,,2013-11-01 08:52:00,
2013-11-01 04:21:00,44.0,43.0,29.73,SSW,194,0.0,0.0,98,0.00,,,0.22,,2013-11-01 09:21:00,
2013-11-01 04:53:00,42.0,41.0,29.73,SSW,195,0.0,0.0,98,0.00,,,0.20,,2013-11-01 09:53:00,
2013-11-01 05:23:00,41.0,40.0,29.73,SSW,195,0.0,0.0,98,0.00,,,0.20,,2013-11-01 10:23:00,
2013-11-01 05:52:00,41.0,40.0,29.74,SSW,194,0.0,0.0,98,0.00,,,0.14,,2013-11-01 10:52:00,
2013-11-01 06:22:00,41.0,40.0,29.75,SSW,192,0.0,1.0,98,0.00,,,0.14,,2013-11-01 11:22:00,
2013-11-01 07:42:00,40.0,39.0,29.76,SSW,194,0.0,0.0,98,0.00,,,0.08,,2013-11-01 12:42:00,
2013-11-01 08:12:00,40.0,40.0,29.77,SSW,194,0.0,0.0,99,0.00,,,0.08,,2013-11-01 13:12:00,
2013-11-01 08:52:00,42.0,42.0,29.79,SSE,156,0.0,0.0,99,0.01,,,0.09,,2013-11-01 13:52:00,
2013-11-01 09:22:00,46.0,46.0,29.80,SE,132,0.0,2.0,99,0.00,,,0.09,,2013-11-01 14:22:00,
2013-11-01 09:52:00,51.0,48.0,29.81,SW,224,1.0,3.0,91,0.00,,,0.09,,2013-11-01 14:52:00,
2013-11-01 10:21:00,55.0,47.0,29.81,West,280,1.0,5.0,75,0.00,,,0.09,,2013-11-01 15:21:00,
2013-11-01 10:43:00,57.0,47.0,29.82,West,262,1.0,6.0,70,0.00,,,0.08,,2013-11-01 15:43:00,
2013-11-01 10:54:00,58.0,47.0,29.82,WSW,238,2.0,6.0,67,0.00,,,0.08,,2013-11-01 15:54:00,
2013-11-01 11:23:00,61.0,47.0,29.82,WSW,238,1.0,4.0,61,0.00,,,0.08,,2013-11-01 16:23:00,
2013-11-01 11:43:00,61.0,47.0,29.82,WSW,241,0.0,5.0,60,0.00,,,0.02,,2013-11-01 16:43:00,
2013-11-01 11:53:00,63.0,48.0,29.82,WNW,284,1.0,5.0,57,0.00,,,0.02,,2013-11-01 16:53:00,
2013-11-01 12:12:00,63.0,46.0,29.83,NW,325,2.0,6.0,53,0.00,,,0.02,,2013-11-01 17:12:00,
2013-11-01 12:22:00,64.0,46.0,29.83,NE,51,1.0,4.0,52,0.00,,,0.01,,2013-11-01 17:22:00,
2013-11-01 12:52:00,66.0,47.0,29.83,SSW,205,2.0,6.0,50,0.00,,,0.01,,2013-11-01 17:52:00,
2013-11-01 13:22:00,67.0,47.0,29.82,WNW,293,1.0,6.0,49,0.00,,,0.01,,2013-11-01 18:22:00,
2013-11-01 13:52:00,67.0,44.0,29.80,WNW,289,2.0,8.0,44,0.00,,,0.01,,2013-11-01 18:52:00,
2013-11-01 14:21:00,68.0,44.0,29.79,West,277,2.0,10.0,42,0.00,,,0.01,,2013-11-01 19:21:00,
2013-11-01 14:52:00,69.0,45.0,29.79,NE,40,2.0,6.0,42,0.00,,,0.01,,2013-11-01 19:52:00,
2013-11-01 15:12:00,68.0,43.0,29.78,SE,140,2.0,13.0,40,0.00,,,0.01,,2013-11-01 20:12:00,
2013-11-01 15:22:00,69.0,44.0,29.78,WSW,248,2.0,7.0,41,0.00,,,0.01,,2013-11-01 20:22:00,
2013-11-01 15:42:00,68.0,45.0,29.78,West,270,3.0,-999.0,43,-99.99,,,-99.99,,2013-11-01 20:42:00,
2013-11-01 15:52:00,69.0,44.0,29.78,West,264,2.0,7.0,40,0.00,,,0.01,,2013-11-01 20:52:00,
2013-11-01 16:22:00,69.0,43.0,29.78,NE,54,2.0,7.0,39,0.00,,,0.01,,2013-11-01 21:22:00,
2013-11-01 16:43:00,69.0,45.0,29.78,West,262,1.0,6.0,42,0.00,,,0.01,,2013-11-01 21:43:00,
2013-11-01 16:55:00,68.0,43.0,29.79,WSW,245,2.0,6.0,40,0.00,,,0.01,,2013-11-01 21:55:00,
2013-11-01 17:24:00,67.0,44.0,29.79,NW,304,0.0,5.0,43,0.00,,,0.01,,2013-11-01 22:24:00,
2013-11-01 17:42:00,66.0,42.0,29.80,NW,306,1.0,6.0,42,0.00,,,0.01,,2013-11-01 22:42:00,
2013-11-01 17:53:00,65.0,42.0,29.80,NW,320,2.0,7.0,43,0.00,,,0.01,,2013-11-01 22:53:00,
2013-11-01 18:22:00,64.0,43.0,29.81,NW,312,3.0,6.0,46,0.00,,,0.01,,2013-11-01 23:22:00,
2013-11-01 18:53:00,62.0,43.0,29.82,NW,325,2.0,6.0,50,0.00,,,0.01,,2013-11-01 23:53:00,
2013-11-01 19:22:00,60.0,43.0,29.84,NW,318,0.0,3.0,54,0.00,,,0.01,,2013-11-02 00:22:00,
2013-11-01 19:42:00,59.0,44.0,29.85,NW,312,0.0,2.0,57,0.00,,,0.01,,2013-11-02 00:42:00,
2013-11-01 19:52:00,57.0,45.0,29.85,NW,316,0.0,1.0,63,0.00,,,0.01,,2013-11-02 00:52:00,
2013-11-01 20:22:00,57.0,43.0,29.86,NW,316,1.0,3.0,60,0.00,,,0.01,,2013-11-02 01:22:00,
2013-11-01 20:42:00,56.0,43.0,29.87,NW,320,0.0,2.0,61,0.00,,,0.01,,2013-11-02 01:42:00,
2013-11-01 20:52:00,56.0,43.0,29.87,NNE,32,1.0,3.0,61,0.00,,,0.01,,2013-11-02 01:52:00,
2013-11-01 21:22:00,57.0,43.0,29.89,WNW,288,2.0,6.0,60,0.00,,,0.01,,2013-11-02 02:22:00,
2013-11-01 21:42:00,57.0,44.0,29.90,WNW,295,2.0,10.0,61,0.00,,,0.01,,2013-11-02 02:42:00,
2013-11-01 21:52:00,56.0,46.0,29.91,NNE,13,2.0,6.0,68,0.00,,,0.01,,2013-11-02 02:52:00,
2013-11-01 22:22:00,53.0,45.0,29.92,NW,309,0.0,3.0,74,0.00,,,0.01,,2013-11-02 03:22:00,
2013-11-01 22:44:00,53.0,45.0,29.92,NW,308,0.0,0.0,75,0.00,,,0.01,,2013-11-02 03:44:00,
2013-11-01 22:53:00,52.0,45.0,29.93,SW,232,0.0,1.0,78,0.00,,,0.01,,2013-11-02 03:53:00,
2013-11-01 23:24:00,52.0,44.0,29.94,SW,214,0.0,2.0,75,0.00,,,0.01,,2013-11-02 04:24:00,
2013-11-01 23:43:00,52.0,45.0,29.95,NNW,335,0.0,1.0,76,0.00,,,0.01,,2013-11-02 04:43:00,
2013-11-01 23:54:00,51.0,45.0,29.95,WNW,282,0.0,1.0,79,0.00,,,0.01,,2013-11-02 04:54:00,